contact:dominique.lefevre@mio.osupytheas.fr, maurice.libes@osupytheas.fr
Project:EMSO Ligure-ouest http://www.emso-fr.org/EMSO-France
Sensor Aquadopp, line 13 Serial AQD14315 
DOI : "https://doi.org/10.17882/74513; https://doi.org/10.17882/83244" 
Title:EMSO Ligure Ouest : Data ligne ALBATROSS capteur AQUADOPP - deploiement 2021
Id,Date,Profondeur,Latitude,Longitude,X_East,Y_North,Z_Up,Amplitude_X,Amplitude_Y,Amplitude_Z,Batterie,SoundSpeed,Heading,Pitch,Roll,Pressure,Temperature,Speed,Direction
, , m, degrees North, degrees East, m.s-1, m.s-1,m.s-1, 1, 1, 1, Volt, m.s-1, degree, degree, degree, dbar, degree_C, m.s-1, degree
09,2022-05-03T21:30:00,2000.0,42.79,6.0312,-0.015,0.003,0.019,66.0,67.0,69.0,11.8,1504.6,266.4,-0.7,1.0,1990.659,13.27,0.015,281.3
09,2022-05-03T22:00:00,2000.0,42.79,6.0312,0.011,0.007,0.009,70.0,63.0,66.0,11.8,1504.6,266.7,-0.7,1.0,1990.609,13.27,0.013,57.5
09,2022-05-03T22:30:00,2000.0,42.79,6.0312,0.009,0.007,0.003,70.0,61.0,69.0,11.8,1504.6,267.4,-0.7,1.0,1990.641,13.27,0.011,52.1
09,2022-05-03T23:00:00,2000.0,42.79,6.0312,0.004,0.017,-0.015,65.0,63.0,64.0,11.8,1504.6,270.1,-0.7,1.0,1990.61,13.27,0.017,13.2
09,2022-05-04T00:00:00,2000.0,42.79,6.0312,0.0,0.017,0.023,65.0,64.0,65.0,11.7,1504.6,272.7,-0.7,0.9,1990.541,13.27,0.017,0.0
09,2022-05-04T00:30:00,2000.0,42.79,6.0312,0.024,0.043,-0.008,63.0,62.0,64.0,11.8,1504.6,278.7,-0.7,1.0,1990.569,13.27,0.049,29.2
09,2022-05-04T01:00:00,2000.0,42.79,6.0312,0.015,-0.002,-0.027,66.0,64.0,65.0,11.8,1504.6,278.2,-0.7,1.0,1990.573,13.27,0.015,97.6
09,2022-05-04T01:30:00,2000.0,42.79,6.0312,-0.002,0.0,-0.015,65.0,62.0,65.0,11.8,1504.6,283.4,-0.7,1.0,1990.503,13.27,0.002,270.0
09,2022-05-04T02:00:00,2000.0,42.79,6.0312,0.034,0.008,-0.005,66.0,62.0,65.0,11.8,1504.6,284.4,-0.7,1.0,1990.526,13.27,0.034,76.8
09,2022-05-04T02:30:00,2000.0,42.79,6.0312,0.037,-0.001,-0.02,68.0,62.0,64.0,11.8,1504.6,287.2,-0.6,1.0,1990.496,13.27,0.037,91.5
09,2022-05-04T03:00:00,2000.0,42.79,6.0312,0.013,0.022,-0.01,65.0,62.0,66.0,11.8,1504.6,290.6,-0.7,1.1,1990.479,13.27,0.025,30.6
09,2022-05-04T03:30:00,2000.0,42.79,6.0312,0.019,-0.004,-0.008,66.0,63.0,64.0,11.7,1504.6,286.8,-0.6,1.0,1990.508,13.27,0.019,101.9
09,2022-05-04T04:00:00,2000.0,42.79,6.0312,0.027,0.008,0.005,68.0,62.0,64.0,11.8,1504.6,294.2,-0.7,1.0,1990.525,13.27,0.028,73.5
09,2022-05-04T04:30:00,2000.0,42.79,6.0312,0.014,-0.002,-0.016,68.0,58.0,65.0,11.8,1504.6,289.3,-0.6,1.0,1990.497,13.27,0.014,98.1
09,2022-05-04T05:00:00,2000.0,42.79,6.0312,0.026,-0.003,0.022,64.0,59.0,66.0,11.8,1504.6,294.6,-0.5,1.1,1990.455,13.27,0.026,96.6
09,2022-05-04T05:30:00,2000.0,42.79,6.0312,0.02,-0.01,0.007,64.0,60.0,64.0,11.8,1504.6,287.4,-0.7,1.0,1990.473,13.27,0.022,116.6
09,2022-05-04T06:00:00,2000.0,42.79,6.0312,0.012,0.02,-0.001,66.0,61.0,65.0,11.8,1504.6,292.4,-0.7,1.0,1990.49,13.27,0.023,31.0
09,2022-05-04T06:30:00,2000.0,42.79,6.0312,0.015,0.0,-0.013,67.0,60.0,65.0,11.7,1504.6,293.6,-0.6,1.0,1990.527,13.27,0.015,90.0
09,2022-05-04T07:00:00,2000.0,42.79,6.0312,0.001,0.001,0.007,64.0,62.0,66.0,11.7,1504.6,285.8,-0.7,1.1,1990.555,13.27,0.001,45.0
09,2022-05-04T07:30:00,2000.0,42.79,6.0312,0.019,-0.002,-0.001,63.0,61.0,62.0,11.8,1504.6,280.9,-0.7,1.0,1990.539,13.27,0.019,96.0
09,2022-05-04T08:00:00,2000.0,42.79,6.0312,0.018,0.002,-0.017,64.0,67.0,67.0,11.8,1504.6,286.1,-0.7,1.1,1990.553,13.27,0.018,83.7
09,2022-05-04T08:30:00,2000.0,42.79,6.0312,0.035,0.017,0.006,64.0,63.0,65.0,11.8,1504.6,283.5,-0.6,1.0,1990.553,13.27,0.038,64.1
09,2022-05-04T09:00:00,2000.0,42.79,6.0312,0.018,-0.01,-0.009,66.0,62.0,63.0,11.7,1504.6,284.0,-0.7,1.1,1990.559,13.27,0.02,119.1
09,2022-05-04T09:30:00,2000.0,42.79,6.0312,0.028,-0.009,0.005,71.0,62.0,63.0,11.8,1504.6,283.5,-0.6,1.0,1990.587,13.27,0.029,107.8
09,2022-05-04T10:00:00,2000.0,42.79,6.0312,0.022,0.009,0.017,64.0,62.0,66.0,11.8,1504.6,274.8,-0.7,1.0,1990.556,13.27,0.023,67.8
09,2022-05-04T10:30:00,2000.0,42.79,6.0312,0.023,-0.002,-0.028,66.0,60.0,65.0,11.8,1504.6,281.9,-0.7,1.1,1990.537,13.27,0.023,95.0
09,2022-05-04T11:00:00,2000.0,42.79,6.0312,0.022,0.0,-0.008,64.0,62.0,66.0,11.8,1504.6,292.0,-0.6,1.0,1990.528,13.27,0.022,90.0
09,2022-05-04T11:30:00,2000.0,42.79,6.0312,0.008,0.015,-0.019,68.0,62.0,63.0,11.8,1504.6,291.6,-0.6,1.1,1990.512,13.27,0.017,28.1
09,2022-05-04T12:00:00,2000.0,42.79,6.0312,0.007,0.019,-0.02,67.0,63.0,61.0,11.8,1504.6,295.0,-0.6,1.1,1990.485,13.27,0.02,20.2
09,2022-05-04T13:00:00,2000.0,42.79,6.0312,0.028,0.005,-0.019,67.0,59.0,63.0,11.8,1504.6,297.8,-0.9,1.0,1990.432,13.27,0.028,79.9
09,2022-05-04T13:30:00,2000.0,42.79,6.0312,0.01,-0.002,0.006,68.0,62.0,64.0,11.8,1504.6,300.3,-0.6,1.0,1990.453,13.27,0.01,101.3
09,2022-05-04T14:00:00,2000.0,42.79,6.0312,0.012,0.005,-0.009,68.0,60.0,63.0,11.8,1504.6,299.5,-0.8,1.0,1990.449,13.27,0.013,67.4
09,2022-05-04T14:30:00,2000.0,42.79,6.0312,0.014,0.015,0.005,66.0,63.0,67.0,11.8,1504.6,302.1,-0.6,1.1,1990.423,13.27,0.02,43.0
09,2022-05-04T15:00:00,2000.0,42.79,6.0312,0.005,0.009,-0.038,67.0,64.0,65.0,11.7,1504.6,299.6,-0.8,1.0,1990.44,13.27,0.01,29.1
09,2022-05-04T15:30:00,2000.0,42.79,6.0312,0.005,-0.002,-0.015,64.0,63.0,65.0,11.8,1504.6,300.1,-0.7,1.0,1990.451,13.27,0.005,111.8
09,2022-05-04T16:00:00,2000.0,42.79,6.0312,0.027,0.007,-0.014,64.0,65.0,67.0,11.8,1504.6,302.8,-0.6,1.1,1990.423,13.27,0.027,75.5
09,2022-05-04T16:30:00,2000.0,42.79,6.0312,0.018,0.008,-0.027,66.0,62.0,64.0,11.8,1504.6,303.2,-0.8,1.0,1990.419,13.27,0.019,66.0
09,2022-05-04T17:00:00,2000.0,42.79,6.0312,0.037,0.025,-0.031,63.0,60.0,64.0,11.8,1504.6,303.8,-0.6,1.1,1990.468,13.27,0.044,56.0
09,2022-05-04T17:30:00,2000.0,42.79,6.0312,0.033,0.012,-0.01,63.0,60.0,66.0,11.8,1504.6,311.5,-0.7,1.1,1990.449,13.27,0.035,70.0
09,2022-05-04T18:00:00,2000.0,42.79,6.0312,0.034,0.012,0.006,67.0,61.0,63.0,11.8,1504.6,310.8,-0.8,1.0,1990.476,13.27,0.036,70.6
09,2022-05-04T18:30:00,2000.0,42.79,6.0312,0.043,0.015,-0.007,66.0,60.0,64.0,11.8,1504.6,307.6,-0.8,1.0,1990.559,13.27,0.045,70.8
09,2022-05-04T19:00:00,2000.0,42.79,6.0312,0.001,0.005,-0.012,64.0,63.0,65.0,11.7,1504.6,305.7,-0.9,1.0,1990.534,13.27,0.005,11.3
09,2022-05-04T19:30:00,2000.0,42.79,6.0312,0.026,0.031,-0.019,65.0,62.0,63.0,11.7,1504.6,312.8,-0.7,1.1,1990.562,13.27,0.04,40.0
09,2022-05-04T20:00:00,2000.0,42.79,6.0312,0.021,0.009,0.017,64.0,61.0,64.0,11.8,1504.6,312.3,-0.6,1.0,1990.596,13.27,0.022,66.8
09,2022-05-04T20:30:00,2000.0,42.79,6.0312,0.034,0.014,-0.033,66.0,63.0,61.0,11.8,1504.6,313.6,-0.7,1.0,1990.607,13.27,0.036,67.6
09,2022-05-04T21:00:00,2000.0,42.79,6.0312,0.013,0.0,-0.028,64.0,64.0,64.0,11.8,1504.6,313.6,-0.9,1.0,1990.641,13.27,0.013,90.0
